This is the latest recevied weather packets stored in our database for station/object KW4UJ. If no packets are shown the sender has not sent any weather packets the latest 10 day(s).
| Time | Temp. | Humidity | Pressure | Rain* | Wind** | Luminosity | Snow |
|---|---|---|---|---|---|---|---|
| 1777951690 | 17.78° C | 57% | 1010.8 hPa | 0 mm | - | 0 W/m² | - |
| 1777951385 | 17.78° C | 57% | 1010.7 hPa | 0 mm | - | 0 W/m² | - |
| 1777951083 | 17.78° C | 57% | 1010.9 hPa | 0 mm | - | 0 W/m² | - |
| 1777950779 | 18.33° C | 56% | 1011 hPa | 0 mm | - | 0 W/m² | - |
| 1777950476 | 18.33° C | 55% | 1010.7 hPa | 0 mm | - | 0 W/m² | - |
| 1777950172 | 18.33° C | 55% | 1010.9 hPa | 0 mm | - | 0 W/m² | - |
| 1777949867 | 18.33° C | 55% | 1010.9 hPa | 0 mm | - | 0 W/m² | - |
| 1777949566 | 18.33° C | 54% | 1010.7 hPa | 0 mm | - | 0 W/m² | - |
| 1777949264 | 18.89° C | 54% | 1010.7 hPa | 0 mm | - | 0 W/m² | - |
| 1777948961 | 18.89° C | 53% | 1010.6 hPa | 0 mm | - | 0 W/m² | - |
| 1777948658 | 18.89° C | 53% | 1010.6 hPa | 0 mm | - | 0 W/m² | - |
| 1777948355 | 18.89° C | 52% | 1010.8 hPa | 0 mm | - | 0 W/m² | - |
| 1777948053 | 19.44° C | 51% | 1010.7 hPa | 0 mm | - | 0 W/m² | - |
| 1777947750 | 19.44° C | 50% | 1010.8 hPa | 0 mm | - | 0 W/m² | - |
| 1777947446 | 19.44° C | 50% | 1010.6 hPa | 0 mm | - | 0 W/m² | - |
| 1777947143 | 19.44° C | 50% | 1010.8 hPa | 0 mm | - | 0 W/m² | - |
| 1777946839 | 20° C | 49% | 1010.7 hPa | 0 mm | - | 0 W/m² | - |
| 1777946534 | 20° C | 49% | 1010.7 hPa | 0 mm | - | 0 W/m² | - |
| 1777946232 | 20° C | 48% | 1010.6 hPa | 0 mm | - | 0 W/m² | - |
| 1777945929 | 20° C | 49% | 1010.4 hPa | 0 mm | - | 0 W/m² | - |
| 1777945626 | 19.44° C | 49% | 1010.6 hPa | 0 mm | - | 0 W/m² | - |
| 1777945323 | 19.44° C | 50% | 1010.4 hPa | 0 mm | - | 0 W/m² | - |
| 1777945020 | 19.44° C | 50% | 1010.4 hPa | 0 mm | - | 0 W/m² | - |
| 1777944717 | 19.44° C | 50% | 1010.5 hPa | 0 mm | - | 0 W/m² | - |
| 1777944415 | 19.44° C | 49% | 1010.3 hPa | 0 mm | - | 0 W/m² | - |
* Rain latest hour (hover to see other rain measurements)
** Current wind speed in m/s (hover to see current wind gust speed)